Dades meteomassalio
Diari Summary for Juliol 12, 2017 Units:  Metric    English   Both
« Previous Day
Next Day »
Diari Semanal Mensual Anual Personalitzat
  Maxima: Minima: Mijana:
Temperatura: -17.8 °C -8.5 °C -2.1 °C
Rosada: -17.8 °C -11.5 °C -8.8 °C
Humitat: Humidity % 21 % 54 %
Velocitat del vent: 0 km/h 0 km/h 8.7 km/h
Racha vent: 0 km/h - -
Vent:- - South
Pressio: 0 hPa 34327.3 hPa -
Pluja: 0 mm    
Historical Graphs
 
 
Tabular Data for Juliol 12, 2017
Time Temperature Dew Point Pressure Wind Wind Speed Wind Gust Humidity Rainfall Rate (Hourly) solar Conditions
-17.8 °C -17.8 °C 0 hPa Calm     Humidity % 0 mm SolarRadiationWatts/m^2 W/m2 Conditions
00:00 -3.6 °C -6.9 °C 34361.1 hPa Calm     69 % 0 mm 0.0 W/m2 CLR
00:05 -3.7 °C -7.1 °C 34361.1 hPa Calm     69 % 0 mm 0.0 W/m2 CLR
00:10 -3.8 °C -7.1 °C 34361.1 hPa Calm     70 % 0 mm 0.0 W/m2 CLR
00:15 -3.9 °C -6.9 °C 34361.1 hPa Calm     72 % 0 mm 0.0 W/m2 CLR
00:20 -4 °C -7 °C 34361.1 hPa Calm     72 % 0 mm 0.0 W/m2 CLR
00:25 -4.1 °C -7.2 °C 34361.1 hPa Calm     71 % 0 mm 0.0 W/m2 CLR
00:30 -4.1 °C -7.3 °C 34361.1 hPa Calm     70 % 0 mm 0.0 W/m2 CLR
00:35 -4.1 °C -7.2 °C 34361.1 hPa Calm     71 % 0 mm 0.0 W/m2 CLR
00:40 -4.1 °C -7.1 °C 34361.1 hPa Calm     72 % 0 mm 0.0 W/m2 CLR
00:45 -4.1 °C -7.3 °C 34361.1 hPa Calm     71 % 0 mm 0.0 W/m2 CLR
00:50 -4.2 °C -7.4 °C 34361.1 hPa Calm     70 % 0 mm 0.0 W/m2 CLR
00:55 -4.2 °C -7.4 °C 34361.1 hPa Calm     70 % 0 mm 0.0 W/m2 CLR
01:00 -4.3 °C -7.4 °C 34361.1 hPa Calm     71 % 0 mm 0.0 W/m2 CLR
01:05 -4.3 °C -7.7 °C 34361.1 hPa Calm     69 % 0 mm 0.0 W/m2 CLR
01:10 -4.3 °C -7.4 °C 34361.1 hPa Calm     71 % 0 mm 0.0 W/m2 CLR
01:15 -4.5 °C -7.4 °C 34361.1 hPa Calm     72 % 0 mm 0.0 W/m2 CLR
01:20 -4.7 °C -7.4 °C 34361.1 hPa Calm     74 % 0 mm 0.0 W/m2 CLR
01:25 -4.8 °C -7.6 °C 34361.1 hPa Calm     74 % 0 mm 0.0 W/m2 CLR
01:30 -4.9 °C -7.4 °C 34361.1 hPa Calm     76 % 0 mm 0.0 W/m2 CLR
01:35 -5.1 °C -7.6 °C 34361.1 hPa Calm     76 % 0 mm 0.0 W/m2 CLR
01:40 -5.2 °C -7.5 °C 34361.1 hPa Calm     77 % 0 mm 0.0 W/m2 CLR
01:45 -5.2 °C -7.6 °C 34361.1 hPa Calm     77 % 0 mm 0.0 W/m2 CLR
01:50 -5.3 °C -7.6 °C 34361.1 hPa Calm     78 % 0 mm 0.0 W/m2 CLR
01:55 -5.4 °C -7.7 °C 34361.1 hPa Calm     78 % 0 mm 0.0 W/m2 CLR
02:00 -5.5 °C -7.7 °C 34361.1 hPa Calm     79 % 0 mm 0.0 W/m2 CLR
02:05 -5.6 °C -7.7 °C 34361.1 hPa Calm     79 % 0 mm 0.0 W/m2 CLR
02:10 -5.7 °C -7.7 °C 34361.1 hPa Calm     80 % 0 mm 0.0 W/m2 CLR
02:15 -5.8 °C -7.8 °C 34361.1 hPa Calm     80 % 0 mm 0.0 W/m2 CLR
02:20 -5.8 °C -7.8 °C 34361.1 hPa Calm     80 % 0 mm 0.0 W/m2 CLR
02:22 -5.8 °C -7.8 °C 34361.1 hPa Calm     80 % 0 mm 0.0 W/m2 CLR
02:27 -5.9 °C -7.7 °C 34347.6 hPa Calm     81 % 0 mm 0.0 W/m2 CLR
02:32 -5.9 °C -7.8 °C 34347.6 hPa Calm     81 % 0 mm 0.0 W/m2 CLR
02:37 -5.9 °C -7.8 °C 34347.6 hPa Calm     81 % 0 mm 0.0 W/m2 CLR
02:42 -6 °C -7.9 °C 34347.6 hPa Calm     81 % 0 mm 0.0 W/m2 CLR
02:47 -6.1 °C -7.8 °C 34347.6 hPa Calm     82 % 0 mm 0.0 W/m2 CLR
02:52 -6.2 °C -7.9 °C 34347.6 hPa Calm     82 % 0 mm 0.0 W/m2 CLR
02:57 -6.3 °C -8 °C 34347.6 hPa Calm     82 % 0 mm 0.0 W/m2 CLR
03:02 -6.3 °C -8 °C 34347.6 hPa Calm     83 % 0 mm 0.0 W/m2 CLR
03:07 -6.4 °C -8.1 °C 34347.6 hPa Calm     83 % 0 mm 0.0 W/m2 CLR
03:12 -6.5 °C -8.2 °C 34347.6 hPa Calm     82 % 0 mm 0.0 W/m2 CLR
03:17 -6.6 °C -8.2 °C 34337.4 hPa Calm     83 % 0 mm 0.0 W/m2 CLR
03:22 -6.6 °C -8.3 °C 34347.6 hPa Calm     83 % 0 mm 0.0 W/m2 CLR
03:27 -6.7 °C -8.2 °C 34347.6 hPa Calm     84 % 0 mm 0.0 W/m2 CLR
03:32 -6.7 °C -8.2 °C 34347.6 hPa Calm     84 % 0 mm 0.0 W/m2 CLR
03:37 -6.7 °C -8.3 °C 34347.6 hPa Calm     84 % 0 mm 0.0 W/m2 CLR
03:42 -6.8 °C -8.3 °C 34347.6 hPa Calm     84 % 0 mm 0.0 W/m2 CLR
03:47 -6.8 °C -8.4 °C 34347.6 hPa Calm     84 % 0 mm 0.0 W/m2 CLR
03:52 -6.9 °C -8.6 °C 34337.4 hPa Calm     83 % 0 mm 0.0 W/m2 CLR
03:57 -7 °C -8.6 °C 34347.6 hPa Calm     84 % 0 mm 0.0 W/m2 CLR
04:02 -7.1 °C -8.6 °C 34347.6 hPa Calm     84 % 0 mm 0.0 W/m2 CLR
04:07 -7.1 °C -8.6 °C 34337.4 hPa Calm     84 % 0 mm 0.0 W/m2 CLR
04:12 -7.1 °C -8.6 °C 34347.6 hPa Calm     85 % 0 mm 0.0 W/m2 CLR
04:17 -7.2 °C -8.5 °C 34347.6 hPa Calm     86 % 0 mm 0.0 W/m2 CLR
04:18 -7.2 °C -8.5 °C 34347.6 hPa Calm     86 % 0 mm 0.0 W/m2 CLR
04:23 -7.3 °C -8.7 °C 34347.6 hPa Calm     85 % 0 mm 0.0 W/m2 CLR
04:28 -7.3 °C -9 °C 34347.6 hPa Calm     83 % 0 mm 0.0 W/m2 CLR
04:33 -7.3 °C -8.8 °C 34347.6 hPa Calm     85 % 0 mm 0.0 W/m2 CLR
04:38 -7.3 °C -8.7 °C 34347.6 hPa Calm     86 % 0 mm 0.0 W/m2 CLR
04:43 -7.4 °C -8.6 °C 34347.6 hPa Calm     87 % 0 mm 0.0 W/m2 CLR
04:48 -7.4 °C -8.8 °C 34347.6 hPa Calm     86 % 0 mm 0.0 W/m2 CLR
04:53 -7.4 °C -8.9 °C 34347.6 hPa Calm     85 % 0 mm 0.0 W/m2 CLR
04:58 -7.4 °C -8.9 °C 34347.6 hPa Calm     85 % 0 mm 0.0 W/m2 CLR
05:03 -7.5 °C -9.1 °C 34347.6 hPa Calm     84 % 0 mm 0.0 W/m2 CLR
05:08 -7.6 °C -9.1 °C 34347.6 hPa Calm     84 % 0 mm 0.0 W/m2 CLR
05:13 -7.6 °C -9.1 °C 34347.6 hPa Calm     84 % 0 mm 0.0 W/m2 CLR
05:18 -7.6 °C -9.1 °C 34347.6 hPa Calm     84 % 0 mm 0.0 W/m2 CLR
05:23 -7.7 °C -9.2 °C 34361.1 hPa Calm     84 % 0 mm 0.0 W/m2 CLR
05:28 -7.7 °C -9.1 °C 34361.1 hPa Calm     85 % 0 mm 0.0 W/m2 CLR
05:33 -7.7 °C -9.2 °C 34361.1 hPa Calm     84 % 0 mm 0.0 W/m2 CLR
05:38 -7.8 °C -9.3 °C 34361.1 hPa Calm     84 % 0 mm 0.0 W/m2 CLR
05:43 -7.9 °C -9.6 °C 34371.3 hPa Calm     83 % 0 mm 0.0 W/m2 CLR
05:48 -7.9 °C -9.5 °C 34371.3 hPa Calm     84 % 0 mm 0.0 W/m2 CLR
05:53 -8 °C -9.5 °C 34371.3 hPa Calm     84 % 0 mm 0.0 W/m2 CLR
05:59 -8.1 °C -9.6 °C 34371.3 hPa Calm     84 % 0 mm 0.0 W/m2 CLR
06:04 -8.1 °C -9.5 °C 34371.3 hPa Calm     85 % 0 mm 0.0 W/m2 CLR
06:09 -8.2 °C -9.7 °C 34371.3 hPa Calm     84 % 0 mm 0.0 W/m2 CLR
06:14 -8.2 °C -9.7 °C 34384.8 hPa Calm     84 % 0 mm 0.0 W/m2 CLR
06:19 -8.2 °C -9.7 °C 34384.8 hPa Calm     84 % 0 mm 0.0 W/m2 CLR
06:24 -8.2 °C -9.7 °C 34384.8 hPa Calm     84 % 0 mm 0.0 W/m2 CLR
06:29 -8.3 °C -9.8 °C 34384.8 hPa Calm     84 % 0 mm 0.0 W/m2 OVC
06:34 -8.3 °C -9.8 °C 34384.8 hPa Calm     84 % 0 mm 0.0 W/m2 OVC
06:39 -8.4 °C -9.9 °C 34384.8 hPa Calm     84 % 0 mm 5.0 W/m2 OVC
06:44 -8.4 °C -9.9 °C 34395 hPa Calm     84 % 0 mm 7.0 W/m2 OVC
06:49 -8.5 °C -10 °C 34395 hPa Calm     84 % 0 mm 9.0 W/m2 BKN
06:54 -8.5 °C -10.1 °C 34395 hPa Calm     84 % 0 mm 12.0 W/m2 BKN
06:59 -8.5 °C -10 °C 34395 hPa Calm     84 % 0 mm 14.0 W/m2 BKN
07:04 -8.5 °C -10 °C 34395 hPa Calm     84 % 0 mm 16.0 W/m2 BKN
07:09 -8.4 °C -9.9 °C 34395 hPa Calm     84 % 0 mm 21.0 W/m2 BKN
07:14 -8.4 °C -10 °C 34395 hPa Calm     83 % 0 mm 26.0 W/m2 BKN
07:19 -8.3 °C -10.1 °C 34405.1 hPa Calm     82 % 0 mm 37.0 W/m2 BKN
07:24 -8.2 °C -9.8 °C 34405.1 hPa Calm     83 % 0 mm 49.0 W/m2 SCT
07:29 -8.1 °C -9.8 °C 34405.1 hPa Calm     82 % 0 mm 60.0 W/m2 SCT
07:34 -8 °C -9.7 °C 34405.1 hPa Calm     82 % 0 mm 70.0 W/m2 FEW
07:39 -7.9 °C -9.7 °C 34405.1 hPa Calm     81 % 0 mm 81.0 W/m2 FEW
07:44 -7.7 °C -9.6 °C 34405.1 hPa Calm     81 % 0 mm 95.0 W/m2 FEW
07:49 -7.4 °C -9.4 °C 34405.1 hPa Calm     80 % 0 mm 105.0 W/m2 CLR
07:54 -7.2 °C -9.4 °C 34405.1 hPa Calm     78 % 0 mm 123.0 W/m2 CLR
07:59 -7 °C -9.2 °C 34405.1 hPa Calm     78 % 0 mm 141.0 W/m2 CLR
08:04 -6.8 °C -8.8 °C 34418.7 hPa Calm     79 % 0 mm 155.0 W/m2 CLR
08:09 -6.5 °C -8.5 °C 34418.7 hPa Calm     80 % 0 mm 171.0 W/m2 CLR
08:14 -6.2 °C -8.3 °C 34418.7 hPa Calm     79 % 0 mm 190.0 W/m2 CLR
08:19 -6.1 °C -8.5 °C 34418.7 hPa Calm     76 % 0 mm 206.0 W/m2 CLR
08:24 -5.9 °C -8.6 °C 34418.7 hPa Calm     74 % 0 mm 220.0 W/m2 CLR
08:29 -5.8 °C -8.4 °C 34418.7 hPa Calm     75 % 0 mm 239.0 W/m2 CLR
08:34 -5.6 °C -8.3 °C 34418.7 hPa Calm     74 % 0 mm 253.0 W/m2 CLR
08:39 -5.4 °C -8 °C 34418.7 hPa Calm     75 % 0 mm 267.0 W/m2 CLR
08:44 -5.2 °C -7.4 °C 34418.7 hPa WSW 12.9 km/h 12.9 km/h 78 % 0 mm 281.0 W/m2 CLR
08:49 -4.9 °C -7.6 °C 34418.7 hPa Calm     75 % 0 mm 297.0 W/m2 CLR
08:54 -4.8 °C -7.3 °C 34418.7 hPa Calm     75 % 0 mm 316.0 W/m2 CLR
08:59 -4.5 °C -6.8 °C 34418.7 hPa WNW 17.9 km/h 17.9 km/h 78 % 0 mm 332.0 W/m2 CLR
09:04 -4.4 °C -6.8 °C 34418.7 hPa West 18.2 km/h 18.2 km/h 77 % 0 mm 346.0 W/m2 CLR
09:09 -4.5 °C -6.8 °C 34428.8 hPa West 17.9 km/h 17.9 km/h 77 % 0 mm 364.0 W/m2 CLR
09:14 -4.4 °C -6.9 °C 34428.8 hPa West 12.9 km/h 12.9 km/h 76 % 0 mm 381.0 W/m2 CLR
09:15 -4.4 °C -6.9 °C 34428.8 hPa West 10.3 km/h 12.2 km/h 76 % 0 mm 381.0 W/m2 CLR
09:20 -4.3 °C -6.8 °C 34428.8 hPa West 20.9 km/h 20.9 km/h 76 % 0 mm 394.0 W/m2 CLR
09:25 -4.3 °C -6.9 °C 34418.7 hPa WNW 11.9 km/h 11.9 km/h 75 % 0 mm 411.0 W/m2 CLR
09:30 -4.1 °C -6.9 °C 34428.8 hPa WNW 11.9 km/h 11.9 km/h 74 % 0 mm 431.0 W/m2 CLR
09:35 -3.9 °C -6.7 °C 34428.8 hPa WSW 9 km/h 9 km/h 74 % 0 mm 446.0 W/m2 CLR
09:36 -3.9 °C -6.8 °C 34418.7 hPa Calm     73 % 0 mm 446.0 W/m2 CLR
09:41 -3.7 °C -6.7 °C 34418.7 hPa WSW 6 km/h   72 % 0 mm 464.0 W/m2 CLR
09:46 -3.6 °C -6.6 °C 34418.7 hPa NW 6 km/h   72 % 0 mm 480.0 W/m2 CLR
09:51 -3.5 °C -6.8 °C 34428.8 hPa North 7.7 km/h 7.7 km/h 70 % 0 mm 496.0 W/m2 CLR
09:56 -3.4 °C -6.8 °C 34428.8 hPa NW 12.9 km/h 12.9 km/h 69 % 0 mm 508.0 W/m2 CLR
10:01 -3.2 °C -6.9 °C 34428.8 hPa NW 23.3 km/h 23.3 km/h 67 % 0 mm 526.0 W/m2 CLR
10:06 -3.1 °C -6.8 °C 34418.7 hPa Calm     67 % 0 mm 540.0 W/m2 CLR
10:11 -3 °C -7 °C 34418.7 hPa Calm     65 % 0 mm 557.0 W/m2 CLR
10:16 -2.9 °C -6.9 °C 34418.7 hPa NNW 10.3 km/h 10.3 km/h 65 % 0 mm 570.0 W/m2 CLR
10:21 -2.9 °C -7 °C 34418.7 hPa North 9 km/h 9 km/h 64 % 0 mm 584.0 W/m2 CLR
10:26 -2.8 °C -7.1 °C 34418.7 hPa North 9 km/h 9 km/h 63 % 0 mm 598.0 W/m2 CLR
10:31 -2.6 °C -7 °C 34418.7 hPa NW 11.9 km/h 11.9 km/h 62 % 0 mm 610.0 W/m2 CLR
10:36 -2.4 °C -7.1 °C 34418.7 hPa NNW 9 km/h 9 km/h 61 % 0 mm 621.0 W/m2 CLR
10:41 -2.3 °C -7.2 °C 34418.7 hPa NNW 3.1 km/h 3.1 km/h 59 % 0 mm 636.0 W/m2 CLR
10:46 -2.2 °C -7.5 °C 34418.7 hPa Calm     56 % 0 mm 654.0 W/m2 CLR
10:51 -2 °C -7.5 °C 34418.7 hPa NNW 9 km/h 9 km/h 55 % 0 mm 664.0 W/m2 CLR
10:56 -1.9 °C -7.7 °C 34418.7 hPa Calm     53 % 0 mm 675.0 W/m2 CLR
11:00 -1.7 °C -7.6 °C 34418.7 hPa NW 15.6 km/h 15.6 km/h 53 % 0 mm 686.0 W/m2 CLR
11:05 -1.7 °C -7.7 °C 34418.7 hPa WNW 20.9 km/h 20.9 km/h 52 % 0 mm 700.0 W/m2 CLR
11:10 -1.8 °C -7.6 °C 34418.7 hPa NNW 17.9 km/h 17.9 km/h 53 % 0 mm 710.0 W/m2 CLR
11:15 -1.7 °C -8.1 °C 34418.7 hPa Calm     50 % 0 mm 721.0 W/m2 CLR
11:20 -1.6 °C -8 °C 34418.7 hPa WNW 18.2 km/h 18.2 km/h 50 % 0 mm 735.0 W/m2 CLR
11:25 -1.4 °C -7.8 °C 34418.7 hPa NNW 15 km/h 15 km/h 50 % 0 mm 744.0 W/m2 CLR
11:30 -1.4 °C -8.2 °C 34418.7 hPa NW 2.6 km/h 2.6 km/h 48 % 0 mm 756.0 W/m2 CLR
11:35 -1.4 °C -7.9 °C 34418.7 hPa WNW 6 km/h 6 km/h 49 % 0 mm 770.0 W/m2 CLR
11:40 -1.3 °C -7.7 °C 34418.7 hPa NNE 26.9 km/h 26.9 km/h 50 % 0 mm 779.0 W/m2 CLR
11:45 -1.2 °C -7.4 °C 34418.7 hPa North 20.9 km/h 20.9 km/h 51 % 0 mm 788.0 W/m2 CLR
11:50 -1.2 °C -7.4 °C 34418.7 hPa North 23.8 km/h 23.8 km/h 51 % 0 mm 796.0 W/m2 CLR
11:55 -1.2 °C -7.3 °C 34418.7 hPa North 15.6 km/h 15.6 km/h 52 % 0 mm 807.0 W/m2 CLR
12:00 -1.1 °C -7.4 °C 34418.7 hPa NW 15 km/h 15 km/h 50 % 0 mm 816.0 W/m2 CLR
12:05 -0.9 °C -7.5 °C 34418.7 hPa NNE 17.9 km/h 17.9 km/h 49 % 0 mm 824.0 W/m2 CLR
12:06 -0.9 °C -7.5 °C 34418.7 hPa East 6 km/h   49 % 0 mm 826.0 W/m2 CLR
12:11 -0.8 °C -7.2 °C 34405.1 hPa North 6 km/h 6 km/h 50 % 0 mm 835.0 W/m2 CLR
12:16 -0.7 °C -7.7 °C 34405.1 hPa North 20.9 km/h 20.9 km/h 47 % 0 mm 847.0 W/m2 CLR
12:21 -0.7 °C -7.7 °C 34405.1 hPa ENE 11.9 km/h 11.9 km/h 47 % 0 mm 854.0 W/m2 CLR
12:26 -0.5 °C -7.6 °C 34405.1 hPa NNE 11.9 km/h 11.9 km/h 47 % 0 mm 860.0 W/m2 CLR
12:31 -0.3 °C -7.7 °C 34405.1 hPa NNE 20.9 km/h 20.9 km/h 45 % 0 mm 868.0 W/m2 CLR
12:36 -0.2 °C -8.1 °C 34405.1 hPa NNE 18.2 km/h 18.2 km/h 43 % 0 mm 875.0 W/m2 CLR
12:41 -0.3 °C -8.2 °C 34405.1 hPa NNW 15 km/h 15 km/h 43 % 0 mm 881.0 W/m2 CLR
12:46 -0.2 °C -8.1 °C 34405.1 hPa NE 17.9 km/h 17.9 km/h 43 % 0 mm 886.0 W/m2 CLR
12:51 -0.2 °C -8.2 °C 34405.1 hPa ENE 17.9 km/h 17.9 km/h 42 % 0 mm 895.0 W/m2 CLR
12:56 -0.1 °C -8.2 °C 34405.1 hPa NE 15 km/h 15 km/h 42 % 0 mm 898.0 W/m2 CLR
13:01 0.1 °C -8 °C 34405.1 hPa NNW 9 km/h 9 km/h 42 % 0 mm 904.0 W/m2 CLR
13:06 0.3 °C -8.2 °C 34405.1 hPa NE 18.2 km/h 18.2 km/h 40 % 0 mm 907.0 W/m2 CLR
13:11 0.3 °C -8.2 °C 34405.1 hPa North 6 km/h   40 % 0 mm 916.0 W/m2 CLR
13:16 0.3 °C -8.4 °C 34405.1 hPa NNE 20.9 km/h 20.9 km/h 39 % 0 mm 919.0 W/m2 CLR
13:21 0.2 °C -8.4 °C 34395 hPa Calm     40 % 0 mm 925.0 W/m2 CLR
13:26 0.2 °C -8.5 °C 34395 hPa NE 23.8 km/h 23.8 km/h 39 % 0 mm 926.0 W/m2 CLR
13:31 0.4 °C -8.5 °C 34395 hPa NNE 17.9 km/h 17.9 km/h 38 % 0 mm 928.0 W/m2 CLR
13:36 0.6 °C -8.7 °C 34395 hPa NNE 26.9 km/h 26.9 km/h 37 % 0 mm 933.0 W/m2 CLR
13:41 0.6 °C -8.7 °C 34395 hPa NE 15 km/h 15 km/h 37 % 0 mm 937.0 W/m2 CLR
13:46 0.6 °C -8.7 °C 34395 hPa North 29.8 km/h 29.8 km/h 37 % 0 mm 935.0 W/m2 CLR
13:51 0.6 °C -8.7 °C 34395 hPa North 12.9 km/h 12.9 km/h 37 % 0 mm 939.0 W/m2 CLR
13:56 0.7 °C -9 °C 34395 hPa NNW 23.8 km/h 23.8 km/h 35 % 0 mm 940.0 W/m2 CLR
14:01 0.9 °C -9.1 °C 34384.8 hPa North 20.9 km/h 20.9 km/h 34 % 0 mm 939.0 W/m2 CLR
14:06 1 °C -8.8 °C 34384.8 hPa NNE 17.9 km/h 17.9 km/h 35 % 0 mm 935.0 W/m2 CLR
14:11 1 °C -8.6 °C 34384.8 hPa Calm     36 % 0 mm 933.0 W/m2 CLR
14:16 1.2 °C -8.7 °C 34384.8 hPa NE 11.9 km/h 11.9 km/h 35 % 0 mm 930.0 W/m2 CLR
14:21 1.3 °C -8.8 °C 34384.8 hPa ENE 11.9 km/h 11.9 km/h 34 % 0 mm 928.0 W/m2 CLR
14:26 1.3 °C -8.7 °C 34384.8 hPa NW 20.9 km/h 20.9 km/h 34 % 0 mm 930.0 W/m2 CLR
14:31 1.3 °C -8.2 °C 34384.8 hPa ENE 17.9 km/h 17.9 km/h 36 % 0 mm 925.0 W/m2 CLR
14:36 1.3 °C -8.3 °C 34384.8 hPa NNE 17.9 km/h 17.9 km/h 36 % 0 mm 921.0 W/m2 CLR
14:41 1.3 °C -8 °C 34384.8 hPa NE 29.8 km/h 29.8 km/h 37 % 0 mm 918.0 W/m2 CLR
14:46 1.4 °C -7.9 °C 34384.8 hPa NNE 25.9 km/h 25.9 km/h 37 % 0 mm 919.0 W/m2 CLR
14:51 1.4 °C -8.4 °C 34384.8 hPa NE 9 km/h   35 % 0 mm 911.0 W/m2 CLR
14:56 1.6 °C -8 °C 34384.8 hPa North 18.2 km/h 18.2 km/h 36 % 0 mm 914.0 W/m2 CLR
15:01 1.6 °C -8.5 °C 34371.3 hPa NE 23.3 km/h 23.3 km/h 34 % 0 mm 905.0 W/m2 CLR
15:06 1.7 °C -8.7 °C 34384.8 hPa NNW 23.8 km/h 23.8 km/h 33 % 0 mm 898.0 W/m2 CLR
15:11 1.7 °C -8.4 °C 34371.3 hPa North 17.9 km/h 17.9 km/h 34 % 0 mm 893.0 W/m2 CLR
15:16 1.8 °C -8.3 °C 34371.3 hPa NE 12.9 km/h 12.9 km/h 34 % 0 mm 893.0 W/m2 CLR
15:21 2 °C -8.2 °C 34371.3 hPa NNE 26.9 km/h 26.9 km/h 34 % 0 mm 884.0 W/m2 CLR
15:26 2.1 °C -8.6 °C 34371.3 hPa NNE 9 km/h   32 % 0 mm 882.0 W/m2 CLR
15:31 2 °C -8.2 °C 34371.3 hPa Calm     34 % 0 mm 877.0 W/m2 CLR
15:36 1.9 °C -9 °C 34371.3 hPa Calm     31 % 0 mm 867.0 W/m2 CLR
15:41 2.1 °C -7.8 °C 34371.3 hPa NNE 20.9 km/h 20.9 km/h 35 % 0 mm 854.0 W/m2 CLR
15:46 2.1 °C -8.1 °C 34371.3 hPa South 6 km/h   34 % 0 mm 846.0 W/m2 CLR
15:51 2.1 °C -9.4 °C 34371.3 hPa North 17.9 km/h 17.9 km/h 29 % 0 mm 849.0 W/m2 CLR
15:56 2.2 °C -7.9 °C 34371.3 hPa NE 11.9 km/h 11.9 km/h 34 % 0 mm 833.0 W/m2 CLR
16:01 2.4 °C -8 °C 34371.3 hPa ENE 9 km/h 9 km/h 33 % 0 mm 828.0 W/m2 CLR
16:06 2.4 °C -8.6 °C 34371.3 hPa ENE 20.9 km/h 20.9 km/h 31 % 0 mm 819.0 W/m2 CLR
16:11 2.4 °C -8.7 °C 34361.1 hPa NE 9 km/h   31 % 0 mm 810.0 W/m2 CLR
16:16 2.4 °C -8.8 °C 34361.1 hPa ENE 11.9 km/h   30 % 0 mm 798.0 W/m2 CLR
16:21 2.6 °C -8.8 °C 34361.1 hPa ENE 25.9 km/h 25.9 km/h 30 % 0 mm 789.0 W/m2 CLR
16:26 2.7 °C -9 °C 34361.1 hPa NNE 29.8 km/h 29.8 km/h 29 % 0 mm 782.0 W/m2 CLR
16:31 2.7 °C -9.3 °C 34361.1 hPa NNE 17.9 km/h 17.9 km/h 28 % 0 mm 768.0 W/m2 CLR
16:36 2.6 °C -9 °C 34361.1 hPa North 15 km/h 15 km/h 29 % 0 mm 756.0 W/m2 CLR
16:41 2.6 °C -8.7 °C 34361.1 hPa North 15 km/h 15 km/h 30 % 0 mm 751.0 W/m2 CLR
16:46 2.6 °C -9.9 °C 34361.1 hPa NW 6 km/h   26 % 0 mm 745.0 W/m2 CLR
16:51 2.8 °C -9.8 °C 34361.1 hPa Calm     26 % 0 mm 733.0 W/m2 CLR
16:56 2.8 °C -8.8 °C 34361.1 hPa ENE 18.2 km/h 18.2 km/h 29 % 0 mm 717.0 W/m2 CLR
17:02 2.6 °C -9 °C 34347.6 hPa NE 11.9 km/h 11.9 km/h 29 % 0 mm 703.0 W/m2 CLR
17:07 2.6 °C -9 °C 34361.1 hPa East 15.6 km/h 15.6 km/h 29 % 0 mm 694.0 W/m2 CLR
17:12 2.6 °C -9.1 °C 34347.6 hPa WNW 9 km/h   29 % 0 mm 682.0 W/m2 CLR
17:17 2.6 °C -9.1 °C 34347.6 hPa ENE 15.6 km/h 15.6 km/h 29 % 0 mm 668.0 W/m2 CLR
17:22 2.6 °C -9.3 °C 34347.6 hPa ENE 6 km/h 6 km/h 28 % 0 mm 652.0 W/m2 CLR
17:27 2.6 °C -9.3 °C 34347.6 hPa East 10.3 km/h 10.3 km/h 28 % 0 mm 643.0 W/m2 CLR
17:32 2.6 °C -9.1 °C 34347.6 hPa NNE 15 km/h 15 km/h 29 % 0 mm 631.0 W/m2 CLR
17:37 2.8 °C -9.2 °C 34347.6 hPa NE 11.9 km/h 11.9 km/h 28 % 0 mm 615.0 W/m2 CLR
17:42 2.9 °C -10.1 °C 34347.6 hPa NNW 17.9 km/h 17.9 km/h 25 % 0 mm 608.0 W/m2 CLR
17:47 2.9 °C -9 °C 34337.4 hPa NNE 15 km/h 15 km/h 28 % 0 mm 592.0 W/m2 CLR
17:52 2.9 °C -9.8 °C 34347.6 hPa East 17.9 km/h 17.9 km/h 26 % 0 mm 575.0 W/m2 CLR
17:57 2.7 °C -9.8 °C 34337.4 hPa SE 9 km/h 9 km/h 26 % 0 mm 563.0 W/m2 CLR
18:02 2.7 °C -9.6 °C 34337.4 hPa NE 9 km/h 9 km/h 27 % 0 mm 548.0 W/m2 CLR
18:07 2.8 °C -10.5 °C 34337.4 hPa NNW 20.9 km/h 20.9 km/h 24 % 0 mm 534.0 W/m2 CLR
18:12 2.9 °C -10.7 °C 34337.4 hPa North 17.9 km/h 17.9 km/h 23 % 0 mm 526.0 W/m2 CLR
18:17 3 °C -10.7 °C 34337.4 hPa NE 15 km/h 15 km/h 23 % 0 mm 508.0 W/m2 CLR
18:22 3.1 °C -10.7 °C 34337.4 hPa Calm     23 % 0 mm 494.0 W/m2 CLR
18:27 3.1 °C -10.9 °C 34337.4 hPa North 12.9 km/h 12.9 km/h 22 % 0 mm 478.0 W/m2 CLR
18:32 3.2 °C -10.9 °C 34337.4 hPa North 11.9 km/h 11.9 km/h 22 % 0 mm 466.0 W/m2 CLR
18:37 3.2 °C -10.9 °C 34337.4 hPa NNE 23.8 km/h 23.8 km/h 22 % 0 mm 448.0 W/m2 CLR
18:42 3.1 °C -11 °C 34337.4 hPa North 9 km/h 9 km/h 22 % 0 mm 432.0 W/m2 CLR
18:47 3.2 °C -10.9 °C 34337.4 hPa North 11.9 km/h 11.9 km/h 22 % 0 mm 417.0 W/m2 CLR
18:52 3.2 °C -10.9 °C 34337.4 hPa NNW 3.1 km/h 3.1 km/h 22 % 0 mm 403.0 W/m2 CLR
18:57 3.3 °C -10.8 °C 34327.3 hPa ENE 15 km/h 15 km/h 22 % 0 mm 383.0 W/m2 CLR
19:02 3.3 °C -10.8 °C 34327.3 hPa NNE 20.9 km/h 20.9 km/h 22 % 0 mm 367.0 W/m2 CLR
19:07 3.1 °C -10.9 °C 34327.3 hPa NNE 23.8 km/h 23.8 km/h 22 % 0 mm 352.0 W/m2 CLR
19:12 3.1 °C -11 °C 34327.3 hPa North 9 km/h 9 km/h 22 % 0 mm 338.0 W/m2 CLR
19:18 3.1 °C -11 °C 34337.4 hPa North 6 km/h 6 km/h 22 % 0 mm 320.0 W/m2 CLR
19:23 3.1 °C -10.9 °C 34337.4 hPa NE 11.9 km/h 11.9 km/h 22 % 0 mm 306.0 W/m2 CLR
19:28 3.1 °C -11 °C 34337.4 hPa NE 9 km/h 9 km/h 22 % 0 mm 287.0 W/m2 CLR
19:33 3 °C -11.1 °C 34337.4 hPa NE 9 km/h 9 km/h 22 % 0 mm 272.0 W/m2 CLR
19:38 2.9 °C -11.5 °C 34337.4 hPa ENE 11.9 km/h 11.9 km/h 21 % 0 mm 257.0 W/m2 CLR
19:43 2.8 °C -11.2 °C 34337.4 hPa Calm     22 % 0 mm 241.0 W/m2 CLR
19:44 2.8 °C -11.2 °C 34337.4 hPa Calm     22 % 0 mm 236.0 W/m2 CLR
19:49 2.8 °C -11.2 °C 34337.4 hPa ENE 5.1 km/h 5.1 km/h 22 % 0 mm 220.0 W/m2 CLR
19:54 2.8 °C -10.8 °C 34337.4 hPa NE 12.9 km/h 12.9 km/h 23 % 0 mm 204.0 W/m2 CLR
19:59 2.8 °C -11.2 °C 34337.4 hPa NNE 17.9 km/h 17.9 km/h 22 % 0 mm 186.0 W/m2 CLR
20:04 2.8 °C -11.2 °C 34337.4 hPa North 9 km/h 9 km/h 22 % 0 mm 169.0 W/m2 CLR
20:09 2.9 °C -11.1 °C 34337.4 hPa Calm     22 % 0 mm 153.0 W/m2 CLR
20:14 2.9 °C -11.1 °C 34337.4 hPa Calm   0.3 km/h 22 % 0 mm 137.0 W/m2 CLR
20:19 2.9 °C -10.8 °C 34337.4 hPa NW 9 km/h 9 km/h 23 % 0 mm 120.0 W/m2 CLR
20:24 2.8 °C -10.8 °C 34337.4 hPa NNW 6 km/h   23 % 0 mm 105.0 W/m2 CLR
20:29 2.8 °C -10.5 °C 34337.4 hPa Calm     24 % 0 mm 91.0 W/m2 CLR
20:34 2.8 °C -10.8 °C 34337.4 hPa Calm     23 % 0 mm 79.0 W/m2 FEW
20:39 2.7 °C -10.5 °C 34337.4 hPa Calm     24 % 0 mm 65.0 W/m2 FEW
20:44 2.6 °C -10.7 °C 34337.4 hPa Calm     24 % 0 mm 53.0 W/m2 SCT
20:49 2.4 °C -10.4 °C 34347.6 hPa NW 9 km/h   25 % 0 mm 39.0 W/m2 BKN
20:54 2.3 °C -10.6 °C 34347.6 hPa NNW 3.1 km/h   25 % 0 mm 32.0 W/m2 BKN
20:59 2.1 °C -10.4 °C 34347.6 hPa Calm     26 % 0 mm 21.0 W/m2 BKN
21:04 1.9 °C -10.2 °C 34347.6 hPa NW 5.1 km/h 5.1 km/h 27 % 0 mm 21.0 W/m2 BKN
21:09 1.7 °C -10.4 °C 34347.6 hPa NW 6 km/h 6 km/h 27 % 0 mm 16.0 W/m2 BKN
21:14 1.6 °C -10.2 °C 34347.6 hPa NNW 6 km/h 6 km/h 28 % 0 mm 12.0 W/m2 BKN
21:19 1.4 °C -10.4 °C 34347.6 hPa NW 9 km/h 9 km/h 28 % 0 mm 11.0 W/m2 BKN
21:25 1.2 °C -9.9 °C 34347.6 hPa NW 3.1 km/h   30 % 0 mm 7.0 W/m2 BKN
21:30 0.9 °C -9.9 °C 34347.6 hPa NW 11.9 km/h 11.9 km/h 31 % 0 mm 5.0 W/m2 OVC
21:35 0.6 °C -10.2 °C 34347.6 hPa NW 15 km/h 15 km/h 31 % 0 mm 0.0 W/m2 OVC
21:40 0.5 °C -10 °C 34361.1 hPa NW 9 km/h 10.1 km/h 32 % 0 mm 0.0 W/m2 OVC
21:45 0.6 °C -9.9 °C 34361.1 hPa NW 11.9 km/h 11.9 km/h 32 % 0 mm 0.0 W/m2 CLR
21:50 0.5 °C -10 °C 34361.1 hPa NNW 15 km/h 15 km/h 32 % 0 mm 0.0 W/m2 CLR
21:55 0.4 °C -10.1 °C 34361.1 hPa NW 11.9 km/h 11.9 km/h 32 % 0 mm 0.0 W/m2 CLR
22:00 0.4 °C -10.1 °C 34371.3 hPa NW 17.9 km/h 17.9 km/h 32 % 0 mm 0.0 W/m2 CLR
22:05 0.5 °C -9.7 °C 34371.3 hPa NW 29.8 km/h 29.8 km/h 33 % 0 mm 0.0 W/m2 CLR
22:10 0.6 °C -9.6 °C 34371.3 hPa NW 29.8 km/h 29.8 km/h 33 % 0 mm 0.0 W/m2 CLR
22:15 0.5 °C -9.4 °C 34371.3 hPa NNW 26.9 km/h 26.9 km/h 34 % 0 mm 0.0 W/m2 CLR
22:20 0.4 °C -9.3 °C 34371.3 hPa NW 26.9 km/h 26.9 km/h 35 % 0 mm 0.0 W/m2 CLR
22:25 0.3 °C -9.3 °C 34384.8 hPa NW 26.9 km/h 26.9 km/h 35 % 0 mm 0.0 W/m2 CLR
22:30 0.3 °C -9.2 °C 34384.8 hPa NNW 31.1 km/h 31.1 km/h 36 % 0 mm 0.0 W/m2 CLR
22:35 0.1 °C -9.1 °C 34384.8 hPa NW 26.9 km/h 26.9 km/h 37 % 0 mm 0.0 W/m2 CLR
22:40 0 °C -8.9 °C 34384.8 hPa NW 23.8 km/h 23.8 km/h 38 % 0 mm 0.0 W/m2 CLR
22:45 -0.2 °C -8.8 °C 34395 hPa NW 18.2 km/h 18.2 km/h 39 % 0 mm 0.0 W/m2 CLR
22:50 -0.2 °C -8.9 °C 34395 hPa NW 17.9 km/h 17.9 km/h 39 % 0 mm 0.0 W/m2 CLR
22:55 -0.3 °C -9 °C 34395 hPa NNW 17.9 km/h 17.9 km/h 39 % 0 mm 0.0 W/m2 CLR
23:00 -0.4 °C -9.1 °C 34395 hPa NW 20.9 km/h 20.9 km/h 39 % 0 mm 0.0 W/m2 CLR
23:05 -0.4 °C -9.1 °C 34395 hPa NNW 32.8 km/h 32.8 km/h 39 % 0 mm 0.0 W/m2 CLR
23:10 -0.3 °C -9.2 °C 34405.1 hPa NW 29.8 km/h 29.8 km/h 38 % 0 mm 0.0 W/m2 CLR
23:15 -0.4 °C -9.1 °C 34405.1 hPa NW 20.9 km/h 20.9 km/h 39 % 0 mm 0.0 W/m2 CLR
23:20 -0.5 °C -9.2 °C 34405.1 hPa NW 23.8 km/h 23.8 km/h 39 % 0 mm 0.0 W/m2 CLR
23:25 -0.6 °C -9.1 °C 34405.1 hPa NW 29.8 km/h 29.8 km/h 40 % 0 mm 0.0 W/m2 CLR
23:30 -0.8 °C -9 °C 34405.1 hPa NW 23.8 km/h 23.8 km/h 41 % 0 mm 0.0 W/m2 CLR
23:31 -0.8 °C -9 °C 34405.1 hPa WNW 23.8 km/h 23.8 km/h 41 % 0 mm 0.0 W/m2 CLR
23:36 -0.9 °C -9.1 °C 34405.1 hPa WNW 17.9 km/h 17.9 km/h 41 % 0 mm 0.0 W/m2 CLR
23:41 -1 °C -9.4 °C 34405.1 hPa WNW 20.9 km/h 20.9 km/h 40 % 0 mm 0.0 W/m2 CLR
23:46 -1.1 °C -9.2 °C 34418.7 hPa NW 25.9 km/h 25.9 km/h 41 % 0 mm 0.0 W/m2 CLR
23:51 -1.1 °C -9.5 °C 34418.7 hPa WNW 15 km/h 15 km/h 40 % 0 mm 0.0 W/m2 CLR
23:56 -1.2 °C -9.5 °C 34418.7 hPa WNW 9 km/h 9 km/h 40 % 0 mm 0.0 W/m2 CLR
Lo Temps de Massalio
Compliments of Weather Underground - 1.25 mb